www.pogodaiklimat.ru
Время
и дата
21:53 29.11
22:53 29.11
23:53 29.11
00:53 30.11
01:53 30.11
02:01 30.11
02:53 30.11
03:53 30.11
04:53 30.11
05:53 30.11
06:53 30.11
07:53 30.11
08:53 30.11
09:53 30.11
10:24 30.11
10:26 30.11
10:38 30.11
10:41 30.11
10:47 30.11
10:53 30.11
11:53 30.11
12:53 30.11
13:53 30.11
14:53 30.11
15:53 30.11
16:53 30.11
17:53 30.11
18:53 30.12
19:53 30.11
20:53 30.11
21:53 30.11
22:53 30.11
23:53 30.11
00:53 01.12
01:53 01.12
02:53 01.12
03:53 01.12
04:53 01.12
05:53 01.12
06:53 01.12
07:53 01.12
08:53 01.12
09:53 01.12
10:53 01.12
11:53 01.12
12:53 01.12
13:53 01.12
14:53 01.12
Ветер
(напр.,м/с)
Видим. Явления Облачность Т
(С)
Тd
(С)
f
(%)
Тe
(С)
Тes
(С)
Комфортность P
(гПа)
Po
(гПа)
Тmin
(С)
Tmax
(С)
R
(мм)
R24
(мм)
S
(см)
СВ 2 16 км 8/8 1410 м +15.6 +12.8 83 +15 +15 1021.8 1020.7
С 3 16 км ясно +13.3 +11.7 90 +12 +12 1021.7 1020.3
штиль 0 16 км ясно +12.2 +11.7 97 +12 +12 1021.2 1020.0
штиль 0 14 км ясно +11.7 +10.6 93 +11 +11 1020.2 1019.0 +11.1 +16.7
штиль 0 4 км дымка ясно +11.7 +10.6 93 +11 +11 1019.1 1018.0
штиль 0 16 км ясно +11.7 +11.1 96 +11 +11 1017.6
штиль 0 16 км ясно +10.6 +10.6 100 +10 +10 1018.5 1017.3
штиль 0 16 км 8/8 1110 м +11.7 +11.1 96 +11 +11 1017.9 1016.6
штиль 0 16 км ясно +11.7 +10.6 93 +11 +11 1017.8 1016.6
В 2 16 км ясно +11.7 +10.6 93 +10 +10 1017.3 1015.9
штиль 0 16 км 10/0 2550 m
[Ac]
+12.2 +11.7 97 +12 +12 1017.7 1016.6 +10.6 +12.2
штиль 0 16 км 10/8 1140 m
[Ac]
+15.0 +13.9 93 +15 +15 1017.5 1016.3
ЮВ 2 16 км 10/10 1290 м +16.1 +14.4 90 +16 +16 1016.8 1015.6
штиль 0 16 км слабый дождь 10/10 1320 m
[Ns]
+18.3 +16.7 90 +19 +19 1016.7 1015.6 0.5
З 9
{15}
3 км дождь, дымка 10/10 210 m
[Ns]
+18.3 +16.7 90 +18 +18 1017.6
З 13
{18}
1 км сильный дождь, дымка 10/10 210 m
[Ns]
+17.8 +16.1 90 +16 +16 1017.6
З 6 1 км сильный дождь, дымка 10/10 300 m
[Ns]
+17.2 +16.1 93 +16 +16 1017.6
З 6 2 км сильный дождь, дымка 10/10 330 m
[Ns]
+17.2 +16.1 93 +16 +16 1017.6
З 6 5 км дождь, дымка 10/10 330 m
[Ns]
+17.0 +16.0 94 +16 +16 1017.3
З 5
{9}
5 км дождь, дымка 10/8 420 m
[Ac Ns]
+17.2 +16.1 93 +17 +17 1018.3 1017.0
ЮЗ 6 16 км 10/0 3000 m
[Ac]
+18.3 +15.6 84 +18 +19 1015.5 1014.3
Ю 8
{12}
16 км 5/0 2850 m
[Ac]
+20.6 +15.0 70 +23 +24 комфорт 1012.6 1011.2 +12.2 +20.6 11.9
ЮЗ 5 16 км ясно +21.7 +15.0 66 +25 +28 комфорт 1012.8 1011.6
ЮЗ 5 16 км ясно +21.1 +14.4 66 +24 +26 комфорт 1013.2 1011.9
ЮЗ 5 16 км ясно +20.6 +15.0 70 +23 +25 комфорт 1013.4 1012.2
З 5 16 км ясно +20.0 +14.4 70 +22 +23 комфорт 1014.3 1012.9
З 4 16 км ясно +18.3 +14.4 78 +19 +19 1015.3 1013.9
З 4 16 км ясно +17.2 +14.4 84 +17 +17 1016.2 1014.9 +17.2 +21.7
З 4 16 км ясно +16.7 +14.4 86 +16 +16 1016.7 1015.6
З 4 16 км 2/2 1020 м +16.1 +14.4 90 +15 +15 1017.4 1016.3
З 3 16 км 8/8 1080 м +16.1 +14.4 90 +16 +16 1018.7 1017.3
СЗ 5 16 км ясно +14.4 +11.1 81 +13 +13 1019.7 1018.7
СЗ 5 16 км ясно +11.7 -0.6 43 +10 +10 1020.9 1019.7
СЗ 5 16 км ясно +10.0 -1.1 46 +7 +7 1022.0 1020.7 +9.4 +17.2
СЗ 4 16 км ясно +7.2 -1.1 56 +4 +4 1022.9 1021.7
СЗ 3 16 км ясно +6.7 -3.3 49 +4 +4 1023.8 1022.7
СЗ 4 16 км ясно +5.6 -3.9 50 +2 +2 1024.7 1023.4
СЗ 2 16 км ясно +5.6 -4.4 49 +4 +4 1025.7 1024.4
СЗ 2 16 км ясно +5.0 -4.4 51 +3 +3 1027.2 1026.1
СЗ 3 16 км ясно +3.9 -4.4 55 +1 +1 1028.3 1027.1 +3.9 +10.0 11.9
С 2 16 км ясно +5.6 -3.3 53 +4 +4 1029.2 1028.1
С 5 16 км ясно +7.8 -5.6 38 +5 +5 1029.8 1028.5
С 5 16 км ясно +8.9 -6.1 34 +6 +7 1030.7 1029.5
С 5 16 км ясно +11.1 -5.0 32 +9 +11 1030.8 1029.5
С 3 16 км ясно +11.7 -5.0 31 +11 +15 1030.7 1029.5
СВ 5 16 км ясно +13.3 -5.0 28 +12 +15 1030.2 1028.8 +3.3 +13.3
СВ 5 16 км ясно +13.9 -5.6 25 +13 +16 1029.9 1028.8
С 4 16 км ясно +14.4 -5.6 25 +13 +17 1030.0 1028.8
Местоположение метеостанции Wilmington International Airport: широта 34.2675 долгота -77.8997 высота над уровнем моря 10 м.
В архиве по умолчанию представлена погода в Уилмингтоне за последние 1-2 суток. Обновление информации о фактической погоде в базе происходит ежечасно! Архивные данные за месяц целиком и за предыдущие месяцы Вы можете получить, выбрав интересующий диапазон дат из раскрывающегося списка и нажав кнопку "Ввод!".
Внимание! Архив погоды МЕТАР в базе сайта по станциям, не включенным в климатический монитор, хранится не более 60 дней. Нет смысла пытаться выбрать более раннюю дату.
*Определитесь, кто Вы:
Внимание! Время в таблицах - местное (без учета летнего времени). Для получения всемирного времени необходимо вычесть поправку, которая равна -5 ч.
Смотрите также архив погоды в соседних городах и на ближайших метеорологических станциях:
Партнеры нашего сайта:      
Пояснения к столбцам:
  • Ветер - указаны скорость ветра в м/с - средняя за 10 мин, порывы в срок и между сроками (в фигурных скобках) и направление, откуда дует ветер: С - северный,
  • СВ - северо-восточный, В - восточный, ЮВ - юго-восточный, Ю - южный, ЮЗ - юго-западный, З - западный, СЗ - северо-западный.
  • Видимость - горизонтальная дальность видимости в метрах или километрах. При видимости от 1 до 10 км при отсутствии осадков обычно наблюдается дымка, при ухудшении видимости до 1 км и менее - туман. В сухую погоду видимость может ухудшаться дымом, пылью или мглою.
  • Явления - указаны атмосферные явления, наблюдавшиеся в срок или в последний час перед сроком; фигурными скобками обозначены явления, наблюдавшиеся между сроками (за 1-3 часа до срока); квадратными скобками обозначены град или гололедные отложения с указанием их диаметра в мм.
  • Облачность - указаны через наклонную черту общая и нижняя облачность в баллах и высота нижней границы облаков в метрах; квадратными скобками обозначены формы облаков: Ci - перистые, Cs - перисто-слоистые, Cc - перисто-кучевые, Ac - высококучевые, As - высокослоистые, Sc - слоисто-кучевые, Ns - слоисто-дождевые, Cu - кучевые, Cb - кучево-дождевые. Подробнее классификацию облаков см. в Атласе облаков (PDF).
  • T - Температура воздуха - температура, измеренная на высоте 2 м над землей.
  • Td - Температура точки росы - температура, при понижении до которой содержащийся в воздухе водяной пар достигнет насыщения.
  • f - Относительная влажность воздуха - влажноcть воздуха, измеренная на высоте 2 м над землей.
  • Te - Эффективная температура - температура, которую ощущает одетый по сезону человек в тени. Характеристика душности погоды. При расчете учитывается влияние влажности воздуха и скорости ветра на теплоощущения человека.
  • Tes - Эффективная температура на солнце - температура, которую ощущает человек, с поправкой на солнечный нагрев. Характеристика знойности погоды. Зависит от высоты солнца над горизонтом, облачности и скорости ветра. Ночью, в пасмурную погоду, а также при ветре 12 м/с и более поправка равна нулю.
  • P - Атмосферное давление - приведенное к уровню моря атмосферное давление.
  • Po - Атмосферное давление - измеренное на уровне метеостанции атмосферное давление.
  • Tmin - Минимальная температура - минимум температуры воздуха на высоте 2 м над землей.
  • Tmax - Максимальная температура - максимум температуры воздуха на высоте 2 м над землей.
  • R - Количество осадков - Количество выпавших осадков за период времени, мм. При наведении курсора мыши на число - период времени, за который выпало указанное количество осадков.
  • R24 - Количество осадков - Количество выпавших осадков за 24 часа, мм.
  • S - Снежный покров - Высота снежного покрова, см. При наведении курсора мыши на число - состояние снежного покрова и степень покрытия местности в баллах.